FW9102 Weather Reports


time (UTC)temp
F
wind
direction
speed
knots
gust
knots
rain 1hr
in
rain 24hr
in
rain mn
in
humidity
%
barometer
mb
20260508025659 53 173 3.5 4.3 0.00 0.00 0.00 14 1351.1
20260508025156 53 165 2.6 4.3 0.00 0.00 0.00 15 1351.1
20260508024651 53 144 1.7 3.5 0.00 0.00 0.00 14 1351.2
20260508024149 53 155 2.6 4.3 0.00 0.00 0.00 15 1350.8
20260508023645 53 154 2.6 2.6 0.00 0.00 0.00 15 1350.9
20260508023143 54 199 1.7 4.3 0.00 0.00 0.00 15 1350.7
20260508022638 54 184 1.7 4.3 0.00 0.00 0.00 15 1350.8
20260508022136 55 146 1.7 4.3 0.00 0.00 0.00 14 1351.1
20260508021632 55 137 3.5 4.3 0.00 0.00 0.00 14 1350.8
20260508021127 55 150 1.7 3.5 0.00 0.00 0.00 14 1350.7
20260508020626 55 162 2.6 3.5 0.00 0.00 0.00 14 1350.7
20260508020123 56 166 0.9 2.6 0.00 0.00 0.00 14 1350.4
20260508015620 57 175 0.0 2.6 0.00 0.00 0.00 14 1350.3
20260508015117 59 180 0.0 3.5 0.00 0.00 0.00 13 1350.6
20260508014613 59 227 5.2 6.1 0.00 0.00 0.00 13 1350.3
20260508014110 60 214 2.6 12.2 0.00 0.00 0.00 13 1350.3
20260508013606 60 211 2.6 6.1 0.00 0.00 0.00 13 1350.3
20260508013103 61 198 5.2 7.8 0.00 0.00 0.00 12 1350.3
20260508012600 62 213 5.2 6.1 0.00 0.00 0.00 12 1350.2
20260508012057 62 210 9.6 12.2 0.00 0.00 0.00 12 1350.0
20260508011556 62 195 0.0 12.2 0.00 0.00 0.00 12 1350.3
20260508011053 62 221 3.5 13.0 0.00 0.00 0.00 12 1350.2
20260508010549 63 281 2.6 18.2 0.00 0.00 0.00 12 1349.9
20260508010047 63 186 3.5 13.9 0.00 0.00 0.00 12 1350.2
20260508005543 64 262 6.1 7.8 0.00 0.00 0.00 12 1349.9
20260508005040 64 194 1.7 8.7 0.00 0.00 0.00 12 1350.0
20260508004536 64 334 3.5 8.7 0.00 0.00 0.00 12 1350.2
20260508004033 64 224 7.0 20.9 0.00 0.00 0.00 12 1350.3
20260508003529 64 262 4.3 13.9 0.00 0.00 0.00 12 1349.8
20260508003027 64 260 7.8 12.2 0.00 0.00 0.00 12 1350.2
20260508002523 64 319 5.2 17.4 0.00 0.00 0.00 13 1350.2
20260508002021 64 259 13.0 17.4 0.00 0.00 0.00 13 1350.0
20260508001516 64 282 6.1 14.8 0.00 0.00 0.00 13 1349.9
20260508001013 64 206 13.0 17.4 0.00 0.00 0.00 15 1350.2
20260508000509 65 278 9.6 14.8 0.00 0.00 0.00 14 1349.9
20260508000006 64 244 4.3 15.6 0.00 0.00 0.00 15 1350.0
20260507235502 65 240 2.6 15.6 0.00 0.00 0.00 15 1349.9
20260507235000 66 202 3.5 13.9 0.00 0.00 0.00 16 1349.8
20260507234456 64 275 7.0 13.0 0.00 0.00 0.00 16 1350.2
20260507233953 65 227 13.0 20.9 0.00 0.00 0.00 16 1350.2
20260507233450 66 193 13.9 16.5 0.00 0.00 0.00 17 1350.3
20260507232948 65 303 1.7 19.1 0.00 0.00 0.00 18 1350.3
20260507232444 66 187 7.8 14.8 0.00 0.00 0.00 17 1350.3
20260507231942 65 176 8.7 20.9 0.00 0.00 0.00 18 1350.2
20260507231438 66 273 11.3 17.4 0.00 0.00 0.00 17 1350.4
20260507230935 65 302 6.1 19.1 0.00 0.00 0.00 18 1350.3
20260507230432 67 203 2.6 21.7 0.00 0.00 0.00 17 1350.3
20260507225932 65 197 2.6 20.0 0.00 0.00 0.00 18 1350.4
20260507225428 66 243 12.2 20.9 0.00 0.00 0.00 18 1350.2
20260507224925 65 286 9.6 20.0 0.00 0.00 0.00 17 1350.3
20260507224421 66 304 20.0 20.9 0.00 0.00 0.00 16 1350.2
20260507223918 66 264 13.0 17.4 0.00 0.00 0.00 17 1350.0
20260507223414 66 252 17.4 17.4 0.00 0.00 0.00 17 1350.4
20260507222911 67 225 2.6 18.2 0.00 0.00 0.00 15 1350.6
20260507222408 67 247 9.6 18.2 0.00 0.00 0.00 16 1350.3
20260507221905 66 240 5.2 13.0 0.00 0.00 0.00 12 1350.6
20260507221401 66 204 10.4 22.6 0.00 0.00 0.00 13 1350.4
20260507220857 66 291 6.1 20.0 0.00 0.00 0.00 14 1350.2
20260507220355 66 240 8.7 27.8 0.00 0.00 0.00 13 1350.4
20260507215852 67 245 16.5 20.0 0.00 0.00 0.00 12 1350.6
20260507215348 66 307 8.7 22.6 0.00 0.00 0.00 13 1350.4
20260507214845 65 252 13.0 21.7 0.00 0.00 0.00 12 1350.4
20260507214343 66 277 13.9 20.0 0.00 0.00 0.00 12 1350.7
20260507213838 66 264 5.2 23.5 0.00 0.00 0.00 11 1350.7
20260507213335 65 289 9.6 26.1 0.00 0.00 0.00 11 1350.8
20260507212832 65 280 4.3 20.0 0.00 0.00 0.00 11 1350.8
20260507212327 67 349 4.3 17.4 0.00 0.00 0.00 10 1350.9
20260507211824 66 298 14.8 17.4 0.00 0.00 0.00 10 1350.8
20260507211321 65 218 13.0 24.3 0.00 0.00 0.00 11 1350.9
20260507210818 66 233 5.2 26.1 0.00 0.00 0.00 10 1350.8
20260507210315 66 259 16.5 26.1 0.00 0.00 0.00 10 1350.9
20260507205811 66 234 8.7 22.6 0.00 0.00 0.00 10 1351.2
20260507205309 65 242 8.7 14.8 0.00 0.00 0.00 9 1350.9
20260507204804 64 304 14.8 32.2 0.00 0.00 0.00 10 1351.1
20260507204302 66 311 7.8 22.6 0.00 0.00 0.00 10 1351.3
20260507203800 65 299 7.8 24.3 0.00 0.00 0.00 10 1351.7
20260507203258 66 289 7.0 25.2 0.00 0.00 0.00 10 1351.6
20260507202753 64 235 13.0 16.5 0.00 0.00 0.00 9 1351.4
20260507202249 64 221 13.9 20.9 0.00 0.00 0.00 10 1351.3
20260507201744 64 240 6.1 22.6 0.00 0.00 0.00 9 1351.7
20260507201241 65 249 13.9 13.9 0.00 0.00 0.00 9 1351.6
20260507200738 64 216 17.4 26.1 0.00 0.00 0.00 10 1351.8
20260507200233 64 231 7.8 22.6 0.00 0.00 0.00 10 1351.7
20260507195730 65 222 10.4 24.3 0.00 0.00 0.00 11 1351.4
20260507195227 64 226 9.6 19.1 0.00 0.00 0.00 10 1351.6
20260507194725 63 254 7.8 22.6 0.00 0.00 0.00 9 1351.9
20260507194220 64 238 9.6 17.4 0.00 0.00 0.00 11 1351.7
20260507193717 65 222 8.7 30.4 0.00 0.00 0.00 10 1351.8
20260507193214 64 257 7.8 22.6 0.00 0.00 0.00 10 1351.7
20260507192710 66 232 4.3 18.2 0.00 0.00 0.00 11 1351.8
20260507192207 66 253 12.2 20.0 0.00 0.00 0.00 11 1352.1
20260507191703 64 289 5.2 26.1 0.00 0.00 0.00 10 1351.8
20260507191201 64 304 12.2 20.9 0.00 0.00 0.00 12 1352.2
20260507190657 65 242 4.3 16.5 0.00 0.00 0.00 11 1351.7
20260507190156 65 242 5.2 20.0 0.00 0.00 0.00 11 1351.8
20260507185654 64 299 9.6 20.9 0.00 0.00 0.00 13 1352.1
20260507185150 65 296 6.1 18.2 0.00 0.00 0.00 12 1352.2
20260507184648 63 197 15.6 29.5 0.00 0.00 0.00 12 1352.2
20260507184146 64 201 7.0 21.7 0.00 0.00 0.00 12 1352.3
20260507183642 64 228 13.9 21.7 0.00 0.00 0.00 13 1352.2
20260507183139 64 287 14.8 18.2 0.00 0.00 0.00 14 1352.2
20260507182636 62 271 7.8 22.6 0.00 0.00 0.00 12 1352.3
20260507182132 64 303 12.2 16.5 0.00 0.00 0.00 11 1352.6
20260507181628 64 215 14.8 18.2 0.00 0.00 0.00 11 1352.4
20260507181124 65 243 7.8 20.9 0.00 0.00 0.00 13 1352.4
20260507180621 63 258 4.3 14.8 0.00 0.00 0.00 13 1352.3
20260507180118 63 235 12.2 20.0 0.00 0.00 0.00 13 1352.7
20260507175614 61 217 15.6 20.0 0.00 0.00 0.00 16 1352.9
20260507175111 62 220 5.2 19.1 0.00 0.00 0.00 16 1352.9
20260507174609 59 169 4.3 17.4 0.00 0.00 0.00 22 1353.1
20260507174106 60 90 0.0 13.0 0.00 0.00 0.00 24 1352.9
20260507173603 59 111 3.5 7.8 0.00 0.00 0.00 26 1353.3
20260507173100 58 178 5.2 14.8 0.00 0.00 0.00 27 1353.2
20260507172556 57 221 4.3 14.8 0.00 0.00 0.00 29 1353.2
20260507172053 56 199 6.1 14.8 0.00 0.00 0.00 29 1353.3
20260507171548 55 214 12.2 16.5 0.00 0.00 0.00 31 1353.8
20260507171046 55 267 7.8 11.3 0.00 0.00 0.00 31 1353.6
20260507170543 55 259 2.6 9.6 0.00 0.00 0.00 31 1353.3
20260507170040 55 250 0.0 9.6 0.00 0.00 0.00 32 1353.6
20260507165535 55 241 3.5 17.4 0.00 0.00 0.00 32 1353.6
20260507165032 56 234 11.3 13.9 0.00 0.00 0.00 30 1353.7
20260507164528 54 213 4.3 9.6 0.00 0.00 0.00 33 1353.8
20260507164025 52 209 5.2 14.8 0.00 0.00 0.00 35 1353.8
20260507163522 53 205 5.2 12.2 0.00 0.00 0.00 35 1354.1
20260507163021 53 224 7.0 15.6 0.00 0.00 0.00 35 1353.8
20260507162515 52 221 8.7 14.8 0.00 0.00 0.00 38 1353.9
20260507162012 51 292 7.0 14.8 0.00 0.00 0.00 38 1353.9
20260507161508 51 259 7.8 13.9 0.00 0.00 0.00 40 1354.2
20260507161005 50 215 6.1 11.3 0.00 0.00 0.00 43 1353.9
20260507160501 50 231 7.8 13.9 0.00 0.00 0.00 41 1353.8
20260507155956 49 197 6.1 13.0 0.00 0.00 0.00 45 1354.1
20260507155453 49 218 9.6 15.6 0.00 0.00 0.00 46 1353.9
20260507154950 48 222 4.3 8.7 0.00 0.00 0.00 48 1354.1
20260507154447 48 204 7.8 12.2 0.00 0.00 0.00 49 1354.1
20260507153944 47 203 7.8 7.8 0.00 0.00 0.00 50 1354.3
20260507153441 47 210 11.3 11.3 0.00 0.00 0.00 50 1354.2
20260507152937 47 154 3.5 12.2 0.00 0.00 0.00 50 1354.2
20260507152433 46 187 2.6 9.6 0.00 0.00 0.00 51 1354.1
20260507151929 46 200 3.5 7.0 0.00 0.00 0.00 52 1354.2
20260507151426 46 203 5.2 5.2 0.00 0.00 0.00 53 1354.4
20260507150923 46 185 4.3 7.8 0.00 0.00 0.00 53 1354.1
20260507150420 46 139 1.7 9.6 0.00 0.00 0.00 55 1354.4
20260507145916 45 225 1.7 6.1 0.00 0.00 0.00 56 1354.3
20260507145412 44 211 5.2 11.3 0.00 0.00 0.00 56 1354.6
20260507144909 45 117 0.9 5.2 0.00 0.00 0.00 57 1354.3
20260507144406 44 209 3.5 6.1 0.00 0.00 0.00 58 1354.3
20260507143903 44 166 7.8 9.6 0.00 0.00 0.00 58 1354.3
20260507143400 43 225 5.2 7.0 0.00 0.00 0.00 62 1354.6
20260507142857 42 207 5.2 8.7 0.00 0.00 0.00 64 1354.3
20260507142353 44 165 0.0 2.6 0.00 0.00 0.00 61 1354.4
20260507141850 45 131 0.0 2.6 0.00 0.00 0.00 62 1354.2
20260507141346 41 93 2.6 4.3 0.00 0.00 0.00 69 1354.4
20260507140843 43 108 1.7 3.5 0.00 0.00 0.00 67 1354.4
20260507140340 39 186 0.9 4.3 0.00 0.00 0.00 73 1354.4
20260507135838 41 150 1.7 2.6 0.00 0.00 0.00 71 1354.6
20260507135334 40 121 1.7 2.6 0.00 0.00 0.00 73 1354.7
20260507134832 39 110 1.7 2.6 0.00 0.00 0.00 74 1354.7
20260507134327 39 84 1.7 4.3 0.00 0.00 0.00 75 1354.4
20260507133824 40 95 1.7 2.6 0.00 0.00 0.00 72 1354.2
20260507133319 37 38 1.7 3.5 0.00 0.00 0.00 80 1354.6
20260507132818 35 101 2.6 3.5 0.00 0.00 0.00 83 1354.4
20260507132314 33 64 3.5 3.5 0.00 0.00 0.00 89 1354.3
20260507131811 30 90 0.0 2.6 0.00 0.00 0.00 93 1354.4
20260507131308 30 106 2.6 2.6 0.00 0.00 0.00 93 1354.7
20260507130804 30 71 0.0 3.5 0.00 0.00 0.00 93 1354.4
20260507130302 30 90 1.7 2.6 0.00 0.00 0.00 94 1354.6
20260507125801 30 102 0.9 2.6 0.00 0.00 0.00 94 1354.4
20260507125258 30 108 1.7 2.6 0.00 0.00 0.00 94 1354.7
20260507124755 30 100 2.6 2.6 0.00 0.00 0.00 94 1354.7
20260507124251 30 108 1.7 2.6 0.00 0.00 0.00 94 1354.4
20260507123750 30 72 2.6 4.3 0.00 0.00 0.00 94 1354.4
20260507123247 29 73 0.9 2.6 0.00 0.00 0.00 94 1354.6
20260507122742 29 79 2.6 2.6 0.00 0.00 0.00 94 1354.4
20260507122238 30 106 1.7 2.6 0.00 0.00 0.00 94 1354.4
20260507121734 30 63 2.6 3.5 0.00 0.00 0.00 95 1354.6
20260507121230 29 90 2.6 3.5 0.00 0.00 0.00 95 1354.8
20260507120726 29 94 1.7 2.6 0.00 0.00 0.00 95 1354.8
20260507120224 29 99 1.7 3.5 0.00 0.00 0.00 95 1354.7
20260507115719 29 95 1.7 2.6 0.00 0.00 0.00 95 1354.8
20260507115216 29 87 2.6 2.6 0.00 0.00 0.00 94 1354.7
20260507114711 28 87 2.6 2.6 0.00 0.00 0.00 94 1354.8
20260507114209 29 90 0.9 3.5 0.00 0.00 0.00 94 1354.7
20260507113706 28 90 0.9 2.6 0.00 0.00 0.00 94 1354.6
20260507113203 28 82 2.6 3.5 0.00 0.00 0.00 94 1354.4
20260507112701 29 101 2.6 3.5 0.00 0.00 0.00 94 1354.6
20260507112157 28 111 0.9 2.6 0.00 0.00 0.00 94 1354.7
20260507111655 29 78 1.7 3.5 0.00 0.00 0.00 94 1354.8
20260507111152 29 85 2.6 3.5 0.00 0.00 0.00 94 1354.4
20260507110647 29 75 2.6 4.3 0.00 0.00 0.00 94 1354.6
20260507110144 29 79 3.5 4.3 0.00 0.00 0.00 94 1354.7
20260507105641 28 74 2.6 4.3 0.00 0.00 0.00 94 1354.6
20260507105137 27 77 2.6 3.5 0.00 0.00 0.00 94 1354.7
20260507104634 27 78 1.7 3.5 0.00 0.00 0.00 94 1354.7
20260507104131 27 75 1.7 2.6 0.00 0.00 0.00 94 1354.9
20260507103627 28 63 1.7 1.7 0.00 0.00 0.00 93 1354.7
20260507103124 28 90 2.6 2.6 0.00 0.00 0.00 94 1354.7
20260507102620 29 90 1.7 2.6 0.00 0.00 0.00 94 1354.7
20260507102116 28 140 0.0 2.6 0.00 0.00 0.00 93 1354.7
20260507101613 28 85 1.7 2.6 0.00 0.00 0.00 93 1354.6
20260507101109 28 94 1.7 3.5 0.00 0.00 0.00 93 1354.4
20260507100606 28 77 2.6 2.6 0.00 0.00 0.00 93 1354.8
20260507100104 28 90 2.6 2.6 0.00 0.00 0.00 93 1354.9
20260507095602 28 117 1.7 2.6 0.00 0.00 0.00 92 1354.8
20260507095058 29 61 1.7 2.6 0.00 0.00 0.00 92 1354.7
20260507094554 29 84 0.9 2.6 0.00 0.00 0.00 92 1354.7
20260507094051 29 69 3.5 4.3 0.00 0.00 0.00 92 1354.6
20260507093549 28 60 2.6 3.5 0.00 0.00 0.00 92 1354.6
20260507093047 28 65 2.6 2.6 0.00 0.00 0.00 92 1354.7
20260507092543 27 49 2.6 2.6 0.00 0.00 0.00 91 1355.1
20260507092040 28 66 1.7 3.5 0.00 0.00 0.00 91 1354.9
20260507091537 28 33 2.6 3.5 0.00 0.00 0.00 90 1354.8
20260507091033 29 75 4.3 4.3 0.00 0.00 0.00 90 1354.9
20260507090529 30 46 3.5 4.3 0.00 0.00 0.00 90 1354.8
20260507090026 30 42 2.6 4.3 0.00 0.00 0.00 90 1354.8
20260507085523 30 48 1.7 5.2 0.00 0.00 0.00 90 1354.7
20260507085020 30 12 3.5 7.0 0.00 0.00 0.00 88 1354.7
20260507084516 32 12 0.0 3.5 0.00 0.00 0.00 86 1354.8
20260507084014 33 79 2.6 6.1 0.00 0.00 0.00 86 1354.6
20260507083509 33 105 3.5 7.8 0.00 0.00 0.00 86 1354.8
20260507083007 33 96 4.3 8.7 0.00 0.00 0.00 86 1354.7
20260507082503 34 106 3.5 5.2 0.00 0.00 0.00 86 1354.8
20260507081959 34 53 7.8 8.7 0.00 0.00 0.00 86 1354.9
20260507081455 34 68 7.8 7.8 0.00 0.00 0.00 86 1354.8
20260507080952 34 114 11.3 11.3 0.00 0.00 0.00 86 1354.4
20260507080448 34 83 7.8 10.4 0.00 0.00 0.00 86 1354.4
20260507075944 35 94 5.2 11.3 0.00 0.00 0.00 85 1355.1
20260507075440 34 123 6.1 12.2 0.00 0.00 0.00 86 1354.6
20260507074937 35 80 5.2 12.2 0.00 0.00 0.00 85 1354.4
20260507074434 35 113 3.5 11.3 0.00 0.00 0.00 85 1354.4
20260507073932 35 84 4.3 10.4 0.00 0.00 0.00 85 1354.3
20260507073428 35 59 5.2 9.6 0.00 0.00 0.00 85 1354.6
20260507072925 35 68 3.5 11.3 0.00 0.00 0.00 85 1354.3
20260507072422 35 81 4.3 9.6 0.00 0.00 0.00 85 1354.4
20260507071920 35 71 5.2 10.4 0.00 0.00 0.00 84 1354.2
20260507071417 35 109 6.1 11.3 0.00 0.00 0.00 84 1354.6
20260507070913 35 157 2.6 9.6 0.00 0.00 0.00 85 1354.4
20260507070410 35 80 3.5 10.4 0.00 0.00 0.00 84 1354.3
20260507065907 35 86 3.5 10.4 0.00 0.00 0.00 84 1354.6
20260507065404 35 127 7.0 11.3 0.00 0.00 0.00 85 1354.6
20260507064901 35 124 5.2 10.4 0.00 0.00 0.00 84 1354.4
20260507064359 35 127 7.0 13.0 0.00 0.00 0.00 84 1354.4
20260507063857 35 119 5.2 13.9 0.00 0.00 0.00 84 1354.4
20260507063354 35 110 5.2 13.9 0.00 0.00 0.00 84 1354.3
20260507062850 35 90 2.6 11.3 0.00 0.00 0.00 84 1354.1
20260507062347 35 111 10.4 11.3 0.00 0.00 0.00 84 1354.1
20260507061845 35 76 4.3 11.3 0.00 0.00 0.00 84 1354.3
20260507061343 35 114 12.2 12.2 0.00 0.00 0.00 84 1353.8
20260507060841 35 110 16.5 16.5 0.00 0.00 0.00 85 1354.3
20260507060337 35 68 1.7 15.6 0.00 0.00 0.00 85 1354.1
20260507055834 35 62 5.2 12.2 0.00 0.01 0.01 85 1353.9
20260507055329 35 86 3.5 13.9 0.00 0.01 0.01 84 1353.9
20260507054826 35 115 13.0 13.9 0.00 0.01 0.01 84 1353.9
20260507054322 35 96 7.8 16.5 0.00 0.01 0.01 84 1354.1
20260507053820 35 98 7.0 17.4 0.00 0.01 0.01 84 1353.9
20260507053317 35 132 11.3 13.9 0.00 0.01 0.01 83 1353.6
20260507052816 35 145 7.8 16.5 0.00 0.01 0.01 82 1353.9
20260507052312 35 130 7.0 12.2 0.00 0.01 0.01 82 1353.8
20260507051810 35 65 11.3 13.0 0.00 0.01 0.01 82 1353.8
20260507051308 35 133 9.6 15.6 0.00 0.01 0.01 81 1353.6
20260507050804 36 123 7.0 16.5 0.00 0.01 0.01 80 1353.8
20260507050300 37 170 6.1 14.8 0.00 0.01 0.01 75 1353.6
20260507045757 36 150 0.0 13.9 0.00 0.01 0.01 76 1353.6
20260507045254 38 131 5.2 14.8 0.00 0.01 0.01 70 1353.3
20260507044751 38 119 2.6 11.3 0.00 0.01 0.01 69 1353.7
20260507044247 37 105 2.6 2.6 0.00 0.01 0.01 59 1353.4
20260507043744 37 98 1.7 2.6 0.00 0.01 0.01 58 1353.6
20260507043240 38 45 2.6 2.6 0.00 0.01 0.01 58 1353.1
20260507042737 40 112 2.6 3.5 0.00 0.01 0.01 53 1353.2
20260507042232 40 143 2.6 3.5 0.00 0.01 0.01 53 1352.9
20260507041730 40 115 1.7 3.5 0.00 0.01 0.01 53 1353.2
20260507041226 41 108 2.6 3.5 0.00 0.01 0.01 51 1353.1
20260507040723 42 121 2.6 3.5 0.00 0.01 0.01 50 1352.8
20260507040219 42 170 1.7 6.1 0.00 0.01 0.01 48 1352.9
20260507035715 41 140 3.5 4.3 0.00 0.01 0.01 49 1352.9
20260507035211 41 180 0.9 3.5 0.00 0.01 0.01 51 1353.1
20260507034708 41 144 3.5 4.3 0.00 0.01 0.01 50 1353.1
20260507034206 40 114 2.6 3.5 0.00 0.01 0.01 51 1352.4
20260507033704 40 109 1.7 3.5 0.00 0.01 0.01 51 1352.4
20260507033201 41 108 2.6 3.5 0.00 0.01 0.01 50 1352.1
20260507032658 41 105 2.6 4.3 0.00 0.01 0.01 49 1352.4
20260507032154 44 90 1.7 2.6 0.00 0.01 0.01 45 1352.4
20260507031651 44 235 4.3 6.1 0.00 0.01 0.01 45 1352.1
20260507031147 44 235 1.7 3.5 0.00 0.01 0.01 45 1352.3
20260507030644 45 187 0.0 5.2 0.00 0.01 0.01 43 1352.1